Terug naar catalogus

STARLINK-36738

ActiefCommunicatieVLEO
NORAD 67865·PAYLOAD·🇺🇸 United States

Gelanceerd Feb 20, 2026 vanaf Vandenberg Space Force Base

Loading…

Volgende Passages (komende 24 uur)

TLE

VersSource: CelesTrak SupGP

Epoch: Sep 14, 2026, 23:22 UTC

1 67865C 26034R   26257.97409722  .00004846  00000+0  14320-3 0  2570
2 67865  53.1602  43.4267 0001068  77.3775 103.8834 15.34380037    10

Volg STARLINK-36738 in realtime met AllMySat

Download on the App Store